Zurück zum Katalog

COSMOS 2251 DEB

AktivLEO
NORAD 33836·DEBRIS·🇷🇺 Russia

Gestartet Jun 16, 1993 von Plesetsk Cosmodrome

Loading…

Nächste Überflüge (nächste 24 Stunden)

TLE

AktuellSource: Space-Track

Epoche: Sep 14, 2026, 04:27 UTC

1 33836U 93036CD  26257.18558066  .00005409  00000-0  65022-3 0  9991
2 33836  73.9942  73.2315 0023141 210.7229 272.1639 14.84016307681698

Verfolge COSMOS 2251 DEB in Echtzeit mit AllMySat

Download on the App Store